Location: Albany
(35.0000°S, 118.0000°E)
Time: 04:20:42
(UTC-04:00)

Daily predictions for brighter satellites

Satellite Brightness Start Highest point End
(mag) Time Altitude Azimuth Time Altitude Azimuth Time Altitude Azimuth
ATLAS 5 CENTAUR R/B 3.0 06:21:15 10° SW 06:24:35 77° NW 06:36:03 10° NNE
Cosmos 1842 Rocket 3.5 06:29:51 10° S 06:34:16 67° E 06:38:36 10° NNE
Cosmos 1544 4.1 06:34:29 10° SSW 06:38:09 53° W 06:41:47 10° N
SPOT 3 Rocket 4.0 06:33:15 10° S 06:38:26 68° WSW 06:43:34 10° NNW
Cosmos 2251 Rocket 3.9 06:36:03 10° SSW 06:41:24 72° WNW 06:46:38 10° N
Cosmos 1437 Rocket 3.5 06:40:22 10° S 06:44:16 36° ESE 06:48:07 10° NE
APEX 3.0 06:42:37 10° N 06:45:47 40° ENE 06:48:32 10° SE
YAOGAN 1 3.4 06:42:57 10° S 06:47:16 56° WSW 06:51:32 10° NNW
SeaSat 1 3.5 06:45:29 10° N 06:50:16 49° WNW 06:55:06 10° SW
Geosat 4.1 06:45:10 10° SSE 06:50:17 89° WSW 06:55:19 10° NNW
Cosmos 1818 3.9 06:46:06 10° N 06:51:08 42° ENE 06:56:11 10° SE
FREGAT/IRIS 4.3 06:50:13 10° SE 06:52:23 17° E 06:54:32 10° NE
Cosmos 494 Rocket 4.3 06:47:11 10° SSW 06:52:30 73° WNW 06:57:45 10° N
Cosmos 1634 Rocket 4.0 06:48:05 10° S 06:54:28 67° E 07:00:45 10° NNE
MSX 3.8 06:49:35 10° SSE 06:55:23 71° ENE 07:01:06 10° N
Cosmos 2278 Rocket 2.5 06:52:07 10° N 06:57:25 42° ENE 07:02:46 10° SE
COSMOS 2406 3.3 06:52:06 10° SSW 06:57:57 84° ESE 07:03:45 10° NNE
Meteor 2-1 Rocket 4.2 07:02:29 10° S 07:08:00 58° E 07:13:33 10° NNE
Resurs 01 Rocket 2.8 07:05:02 10° SE 07:08:29 21° E 07:10:48 15° NE
Cosmos 405 2.9 07:05:04 10° S 07:08:39 67° E 07:12:11 10° NNE
Centaur D AC-29 3.4 07:04:33 10° WNW 07:08:55 38° N 07:20:50 14° ENE
Spot 2 Rocket 4.5 07:07:02 10° SE 07:11:14 25° E 07:15:21 10° NNE
Cosmos 1408 Rocket 3.7 07:09:28 10° NNE 07:13:38 49° E 07:17:53 10° SSE
Meteor 1-16 Rocket 4.2 07:08:31 10° S 07:14:13 86° W 07:19:41 10° N
BREEZE-M DEB 4.0 07:12:36 10° SW 07:14:42 41° SE 07:15:04 37° ESE
Lacrosse 5 rocket 3.6 07:14:08 10° S 07:15:52 12° SE 07:17:09 11° SE
COSMOS 2487 4.3 07:14:18 10° SSE 07:16:34 17° ESE 07:16:34 17° ESE
BREEZE-M DEB (TANK) 2.5 07:12:12 10° NW 07:17:00 71° NNE 07:18:40 23° ESE
OAO 2 Rocket 3.4 07:16:40 10° W 07:21:37 68° NNW 07:24:22 26° ENE
ASTEX 1 3.4 07:17:32 10° N 07:22:27 90° WNW 07:27:28 10° S
Cosmos 2082 Rocket 3.8 07:19:15 10° SSE 07:22:58 17° SE 07:24:01 16° ESE
SAR-Lupe-1 4.0 07:20:24 10° SSE 07:23:59 61° E 07:27:32 10° N
Meteor 1-24 Rocket 3.9 07:19:52 10° NNW 07:25:09 71° W 07:30:35 10° S
METEOR-M 4.4 07:21:57 10° SSE 07:27:07 44° E 07:32:13 10° N
BREEZE-M DEB (TANK) 2.6 07:27:49 10° NW 07:30:45 72° NE 07:38:54 10° SE
Cosmos 1378 4.1 07:27:38 10° NNW 07:31:19 50° W 07:35:04 10° S
In-Cosmos 22 4.1 07:28:35 10° N 07:34:07 67° E 07:39:35 10° SSE
Cosmos 1844 Rocket 4.3 07:31:56 10° NW 07:37:10 38° WSW 07:42:28 10° S
Cosmos 2228 Rocket 3.5 07:38:06 10° S 07:42:33 43° E 07:42:57 42° E
Cosmos 1743 Rocket 3.7 07:43:26 45° ENE 07:44:04 49° E 07:48:19 10° SSE
SL-19 R/B 4.4 07:40:55 10° SSE 07:46:53 83° WSW 07:52:29 10° NNW
deb Chang Zheng 4 3.7 07:49:22 50° E 07:49:35 50° ESE 07:53:52 10° S
Tiangong 1 3.2 07:48:06 10° W 07:50:24 19° NW 07:50:39 19° NNW
Cosmos 2221 3.7 07:46:51 10° SSW 07:51:07 44° W 07:55:19 10° NNW
USA 234 3.9 07:45:40 10° SE 07:52:06 57° SW 07:58:30 10° WNW
Nimbus 7 Rocket 4.3 07:51:53 28° NNE 07:55:07 75° ESE 08:01:02 10° S
SJ-6B 3.9 07:53:55 10° S 07:57:34 43° WSW 08:01:13 10° NW
CZ-3C R/B 4.2 07:54:44 10° N 08:30:08 - E 07:56:49 19° NNE
DELTA 2 R/B (1) 3.9 07:55:00 10° WSW 08:00:29 56° NNW 08:01:55 44° NNE
Cosmos 2056 Rocket 4.0 07:59:21 10° NNW 08:04:35 61° WSW 08:09:50 10° S
Cosmos 1833 Rocket 3.7 08:02:46 10° S 08:07:05 30° SE 08:07:05 30° SE
CZ-3A R/B 3.7 08:10:55 10° W 08:12:06 11° W 08:13:00 10° WNW
Cosmos 44 Rocket 3.2 08:07:43 10° SSW 08:12:39 81° ESE 08:12:42 81° ESE
GP-B 3.6 08:11:02 29° NNW 08:13:08 58° W 08:17:36 10° S
Cosmos 1190 Rocket 3.8 08:13:02 10° SSW 08:18:19 84° ESE 08:18:22 84° E
Helios 1A 3.5 08:18:36 10° S 08:22:47 58° WSW 08:22:47 58° WSW
SL-19 R/B 4.3 08:26:07 74° ENE 08:26:35 79° ESE 08:32:52 10° S
NOSS 3-1 (C) 3.3 08:20:57 10° SW 08:27:13 75° WNW 08:27:53 67° N
FALCON 9 R/B 3.4 08:02:51 10° W 08:29:43 76° NNW 08:32:02 54° NE
ALOS 3.2 08:28:16 10° S 08:31:27 42° S 08:31:27 42° S
NOSS 3-1 (A) 3.2 08:27:34 10° SSW 08:33:54 89° WSW 08:33:54 89° WSW
Cosmos 407 Rocket 3.8 08:34:26 10° SSW 08:38:54 62° SW 08:38:54 62° SW
Cosmos 2278 Rocket 4.4 08:37:06 10° WNW 08:41:37 24° WSW 08:46:12 10° S
Resurs 01 Rocket 3.5 08:41:01 10° S 08:44:55 29° WSW 08:48:22 12° NW
Timation 2 Rocket 4.1 08:40:35 10° SSW 08:47:11 73° WNW 08:47:17 73° WNW
ATLAS 2AS CENTAUR R/B 3.6 08:42:10 10° SSW 08:46:23 32° SSE 08:46:23 32° SSE
Lacrosse 5 4.2 08:44:50 10° S 08:46:39 14° SSE 08:46:39 14° SSE
Lacrosse 5 rocket 3.7 08:51:26 10° SW 08:52:53 21° SW 08:52:53 21° SW
Cosmos 2082 Rocket 3.2 09:01:49 10° SSW 09:05:55 45° SW 09:05:55 45° SW
